Flag for China Weather past 2 weeks in Hangzhou, Zhejiang, China

Now
79 °F

Fog.


Feels Like: 82 °F
Forecast: 76 / 89 °F
Wind: 1 mph from West

Location: Hangzhou Airport

Current Time: Jul 27, 2014 at 3:29:23 AM

Latest Report: Jul 27, 2014 at 3:00 AM


Visibility: 2 mi

Pressure: 29.83 "Hg

Humidity: 89%

Dew point: 75 °F

Location of HangzhouLocation

Historic Weather in Hangzhou — Graph

°F

Hangzhou temperature yesterday

Maximum temperature yesterday: 91 °F (at 12:00 PM)
Minimum temperature yesterday: 81 °F (at 2:30 AM)
Average temperature yesterday: 84 °F

Past Weeks' High & Low Weather Summary

 TemperatureHumidityPressure
High99 °F (Jul 22, 1:30 PM)89% (Jul 12, 9:00 PM)29.86 "Hg (Jul 12, 9:00 PM)
Low72 °F (Jul 15, 7:30 AM)37% (Jul 17, 2:30 PM)29.36 "Hg (Jul 24, 5:30 PM)
Average85 °F70%29.72 "Hg
* Reported Jul 12 2:00 AM — Jul 27 2:00 AM, Hangzhou, Weather by CustomWeather, © 2014

Note: Actual official high and low records may vary slightly from our data, if they occured in-between our weather recording intervals... More about our weather records

Advertising

Hangzhou weather history for previous 24 hours

 ConditionsComfort  
Time TempWeatherWind HumidityBarometerVisibility
2:00 AM
Jul 27
79 °FFog.1 mph89%29.83 "Hg2 mi
1:30 AM79 °FFog.1 mph89%29.83 "Hg2 mi
1:00 AM79 °FFog.3 mph89%29.83 "Hg2 mi
12:30 AM81 °FFog.1 mph84%29.86 "Hg2 mi
12:00 AM81 °FFog.3 mph84%29.86 "Hg2 mi
11:30 PM
Jul 26
81 °FFog.1 mph84%29.86 "Hg2 mi
11:00 PM81 °FFog.1 mph84%29.86 "Hg2 mi
10:30 PM81 °FFog.1 mph84%29.86 "Hg2 mi
10:00 PM81 °FFog.1 mph84%29.86 "Hg2 mi
9:30 PM81 °FFog.1 mph84%29.86 "Hg2 mi
9:00 PM81 °FSprinkles. Fog.No wind84%29.86 "Hg2 mi
8:30 PM81 °FSprinkles. Fog.No wind84%29.83 "Hg3 mi
8:00 PM81 °FSprinkles. Passing clouds.1 mph84%29.86 "Hg4 mi
7:30 PM81 °FThunderstorms. Passing clouds.6 mph84%29.83 "Hg4 mi
7:00 PM82 °FThunderstorms. Passing clouds.1 mph79%29.83 "Hg5 mi
6:30 PM84 °FThunderstorms. Scattered clouds.3 mph70%29.83 "HgN/A
6:00 PM84 °FThunderstorms. Scattered clouds.6 mph66%29.83 "HgN/A
5:30 PM84 °FThunderstorms. Scattered clouds.8 mph66%29.80 "HgN/A
5:00 PM84 °FThunderstorms. Scattered clouds.8 mph66%29.83 "HgN/A
4:30 PM86 °FThunderstorms. Scattered clouds.6 mph70%29.77 "Hg4 mi
4:00 PM86 °FScattered clouds.8 mph70%29.77 "Hg4 mi
3:30 PM88 °FScattered clouds.10 mph70%29.77 "Hg3 mi
3:00 PM88 °FScattered clouds.6 mph66%29.80 "Hg3 mi
2:30 PM88 °FScattered clouds.8 mph62%29.80 "Hg4 mi
2:00 PM91 °FScattered clouds.1 mph59%29.80 "Hg4 mi
1:30 PM91 °FScattered clouds.1 mph59%29.80 "Hg2 mi
1:00 PM91 °FScattered clouds.1 mph59%29.83 "Hg2 mi
12:30 PM91 °FScattered clouds.1 mph59%29.83 "Hg2 mi
12:00 PM91 °FHaze.3 mph59%29.83 "Hg2 mi
11:30 AM90 °FHaze.1 mph63%29.83 "Hg2 mi
11:00 AM88 °FHaze.1 mph66%29.86 "Hg1 mi
10:30 AM86 °FHaze.3 mph70%29.86 "Hg1 mi
10:00 AM86 °FHaze.3 mph70%29.86 "Hg1 mi
9:30 AM84 °FScattered clouds.1 mph70%29.86 "Hg1 mi
9:00 AM82 °FScattered clouds.3 mph74%29.83 "Hg1 mi
8:30 AM82 °FFog.3 mph74%29.83 "Hg1 mi
8:00 AM82 °FFog.3 mph74%29.83 "Hg1 mi
7:30 AM82 °FFog.3 mph79%29.83 "Hg1 mi
7:00 AM81 °FFog.1 mph84%29.83 "Hg1 mi
6:30 AM81 °FFog.1 mph84%29.83 "Hg1 mi
6:00 AM81 °FThunderstorms. Fog.No wind84%29.80 "Hg1 mi
5:30 AM81 °FThunderstorms. Fog.1 mph84%29.80 "Hg1 mi
5:00 AM81 °FThunderstorms. Fog.3 mph79%29.80 "Hg2 mi
4:30 AM81 °FFog.3 mph79%29.80 "Hg2 mi
4:00 AM82 °FLight rain. Fog.3 mph74%29.77 "Hg2 mi
3:30 AM82 °FFog.1 mph79%29.77 "Hg2 mi
3:00 AM81 °FFog.No wind84%29.77 "Hg2 mi
Weather by CustomWeather, © 2014

See weather overviewHow to use our weather pages